When you browse on this site, cookies collect data to enhance your experience and personalize the content and advertising you see.
Visit our Privacy Policy to learn more. By continuing to use the site, you agree to this use of cookies and data.

Meteo pe oră la Alhimkovo

Astăzi, 6 August, Joi

Timp Temperatura Precipitaţii Vânt Presiune Umiditate
00:00 +18°C° 0 mm 1 m/s 748 mmHg 96%
01:00 +18°C° 0 mm 1 m/s 749 mmHg 97%
02:00 +16°C° 0 mm 1 m/s 749 mmHg 97%
03:00 +16°C° 0.1 mm 1 m/s 749 mmHg 98%
04:00 +16°C° 0.1 mm 1 m/s 749 mmHg 98%
05:00 +16°C° 0.1 mm 1 m/s 749 mmHg 98%
06:00 +18°C° 0 mm 1 m/s 750 mmHg 95%
07:00 +18°C° 0 mm 2 m/s 750 mmHg 92%
08:00 +19°C° 0 mm 2 m/s 751 mmHg 88%
09:00 +21°C° 0.1 mm 2 m/s 751 mmHg 81%
10:00 +23°C° 0.1 mm 2 m/s 751 mmHg 73%
11:00 +24°C° 0.1 mm 2 m/s 751 mmHg 65%
12:00 +25°C° 0.1 mm 3 m/s 751 mmHg 61%
13:00 +25°C° 0.1 mm 3 m/s 751 mmHg 57%
14:00 +25°C° 0.1 mm 3 m/s 751 mmHg 53%
15:00 +25°C° 0 mm 3 m/s 751 mmHg 56%
16:00 +24°C° 0 mm 3 m/s 751 mmHg 59%
17:00 +24°C° 0 mm 2 m/s 751 mmHg 62%
18:00 +21°C° 0 mm 2 m/s 751 mmHg 67%
19:00 +19°C° 0 mm 2 m/s 752 mmHg 72%
20:00 +17°C° 0 mm 2 m/s 752 mmHg 77%
21:00 +16°C° 0 mm 2 m/s 752 mmHg 80%
22:00 +16°C° 0 mm 2 m/s 752 mmHg 82%
23:00 +15°C° 0 mm 2 m/s 752 mmHg 85%

Mâine, 7 August, Vineri

Timp Temperatura Precipitaţii Vânt Presiune Umiditate
00:00 +15°C° 0 mm 2 m/s 752 mmHg 87%
01:00 +14°C° 0 mm 2 m/s 753 mmHg 89%
02:00 +14°C° 0 mm 2 m/s 753 mmHg 90%
03:00 +14°C° 0 mm 2 m/s 753 mmHg 90%
04:00 +14°C° 0 mm 2 m/s 753 mmHg 90%
05:00 +14°C° 0 mm 1 m/s 753 mmHg 90%
06:00 +16°C° 0 mm 1 m/s 753 mmHg 83%
07:00 +19°C° 0 mm 1 m/s 754 mmHg 76%
08:00 +20°C° 0 mm 2 m/s 754 mmHg 69%
09:00 +21°C° 0 mm 2 m/s 754 mmHg 64%
10:00 +23°C° 0 mm 2 m/s 754 mmHg 59%
11:00 +24°C° 0 mm 2 m/s 754 mmHg 55%
12:00 +24°C° 0 mm 2 m/s 753 mmHg 54%
13:00 +25°C° 0 mm 2 m/s 753 mmHg 53%
14:00 +25°C° 0 mm 2 m/s 753 mmHg 52%
15:00 +25°C° 0 mm 2 m/s 753 mmHg 56%
16:00 +24°C° 0 mm 2 m/s 753 mmHg 59%
17:00 +24°C° 0 mm 1 m/s 753 mmHg 63%
18:00 +22°C° 0 mm 1 m/s 753 mmHg 70%
19:00 +20°C° 0 mm 1 m/s 753 mmHg 76%
20:00 +18°C° 0 mm 1 m/s 753 mmHg 83%
21:00 +18°C° 0 mm 1 m/s 753 mmHg 85%
22:00 +16°C° 0 mm 1 m/s 753 mmHg 88%
23:00 +16°C° 0 mm 1 m/s 753 mmHg 90%

Poimâine, 8 August, Sâmbătă

Timp Temperatura Precipitaţii Vânt Presiune Umiditate
00:00 +15°C° 0 mm 1 m/s 753 mmHg 91%
01:00 +15°C° 0 mm 1 m/s 753 mmHg 93%
02:00 +15°C° 0 mm 1 m/s 753 mmHg 94%
03:00 +15°C° 0 mm 1 m/s 753 mmHg 94%
04:00 +15°C° 0 mm 1 m/s 752 mmHg 94%
05:00 +15°C° 0 mm 1 m/s 752 mmHg 94%
06:00 +17°C° 0 mm 2 m/s 752 mmHg 88%
07:00 +18°C° 0 mm 2 m/s 752 mmHg 82%
08:00 +20°C° 0 mm 2 m/s 752 mmHg 75%
09:00 +21°C° 0.2 mm 2 m/s 752 mmHg 73%
10:00 +23°C° 0.2 mm 2 m/s 752 mmHg 70%
11:00 +24°C° 0.2 mm 2 m/s 751 mmHg 68%
12:00 +24°C° 0.1 mm 2 m/s 751 mmHg 65%
13:00 +25°C° 0.1 mm 2 m/s 751 mmHg 62%
14:00 +26°C° 0.1 mm 2 m/s 750 mmHg 59%
15:00 +25°C° 0.1 mm 2 m/s 750 mmHg 65%
16:00 +25°C° 0.1 mm 2 m/s 750 mmHg 70%
17:00 +24°C° 0.1 mm 2 m/s 749 mmHg 75%
18:00 +23°C° 0 mm 2 m/s 749 mmHg 79%
19:00 +21°C° 0 mm 1 m/s 749 mmHg 83%
20:00 +19°C° 0 mm 1 m/s 749 mmHg 87%
21:00 +19°C° 0 mm 1 m/s 749 mmHg 89%
22:00 +18°C° 0 mm 1 m/s 749 mmHg 90%
23:00 +18°C° 0 mm 1 m/s 749 mmHg 92%

9 August, Duminică

Timp Temperatura Precipitaţii Vânt Presiune Umiditate
00:00 +16°C° 0 mm 1 m/s 749 mmHg 92%
01:00 +16°C° 0 mm 1 m/s 749 mmHg 93%
02:00 +16°C° 0 mm 2 m/s 749 mmHg 94%
03:00 +16°C° 0 mm 2 m/s 749 mmHg 94%
04:00 +16°C° 0 mm 2 m/s 748 mmHg 94%
05:00 +16°C° 0 mm 2 m/s 748 mmHg 94%
06:00 +17°C° 0 mm 2 m/s 748 mmHg 87%
07:00 +19°C° 0 mm 2 m/s 748 mmHg 80%
08:00 +21°C° 0 mm 2 m/s 748 mmHg 73%
09:00 +23°C° 0.1 mm 2 m/s 748 mmHg 69%
10:00 +25°C° 0.1 mm 3 m/s 748 mmHg 65%
11:00 +26°C° 0.1 mm 3 m/s 748 mmHg 61%
12:00 +25°C° 0.9 mm 3 m/s 747 mmHg 66%
13:00 +25°C° 0.9 mm 3 m/s 747 mmHg 71%
14:00 +25°C° 0.9 mm 3 m/s 747 mmHg 77%
15:00 +24°C° 0.5 mm 2 m/s 747 mmHg 78%
16:00 +24°C° 0.5 mm 2 m/s 747 mmHg 79%
17:00 +24°C° 0.5 mm 1 m/s 747 mmHg 81%
18:00 +22°C° 0.1 mm 1 m/s 747 mmHg 84%
19:00 +21°C° 0.1 mm 1 m/s 747 mmHg 88%
20:00 +19°C° 0.1 mm 1 m/s 747 mmHg 92%
21:00 +18°C° 0 mm 1 m/s 747 mmHg 91%
22:00 +18°C° 0 mm 1 m/s 747 mmHg 90%
23:00 +16°C° 0 mm 1 m/s 747 mmHg 89%

10 August, Luni

Timp Temperatura Precipitaţii Vânt Presiune Umiditate
00:00 +15°C° 0 mm 1 m/s 747 mmHg 89%
01:00 +15°C° 0 mm 1 m/s 747 mmHg 89%
02:00 +14°C° 0 mm 1 m/s 747 mmHg 89%
03:00 +15°C° 0 mm 1 m/s 747 mmHg 90%
04:00 +15°C° 0 mm 1 m/s 747 mmHg 90%
05:00 +15°C° 0 mm 1 m/s 747 mmHg 90%
06:00 +16°C° 0 mm 1 m/s 747 mmHg 87%
07:00 +19°C° 0 mm 1 m/s 747 mmHg 83%
08:00 +21°C° 0 mm 1 m/s 747 mmHg 79%
09:00 +22°C° 0.1 mm 1 m/s 747 mmHg 73%
10:00 +24°C° 0.1 mm 2 m/s 747 mmHg 68%
11:00 +26°C° 0.1 mm 2 m/s 747 mmHg 62%
12:00 +26°C° 0.2 mm 2 m/s 746 mmHg 60%
13:00 +26°C° 0.2 mm 2 m/s 746 mmHg 57%
14:00 +27°C° 0.2 mm 2 m/s 746 mmHg 55%
15:00 +26°C° 1 mm 2 m/s 745 mmHg 64%
16:00 +25°C° 1 mm 2 m/s 745 mmHg 74%
17:00 +23°C° 1 mm 2 m/s 745 mmHg 83%
18:00 +21°C° 0.6 mm 2 m/s 745 mmHg 86%
19:00 +20°C° 0.6 mm 2 m/s 745 mmHg 89%
20:00 +20°C° 0.6 mm 1 m/s 745 mmHg 92%
21:00 +19°C° 0 mm 1 m/s 745 mmHg 93%
22:00 +19°C° 0 mm 1 m/s 745 mmHg 94%
23:00 +18°C° 0 mm 1 m/s 745 mmHg 94%

11 August, Marţi

Timp Temperatura Precipitaţii Vânt Presiune Umiditate
00:00 +16°C° 0 mm 1 m/s 745 mmHg 95%
01:00 +16°C° 0 mm 2 m/s 745 mmHg 95%
02:00 +15°C° 0 mm 2 m/s 745 mmHg 95%
03:00 +15°C° 0 mm 2 m/s 745 mmHg 95%
04:00 +15°C° 0 mm 2 m/s 745 mmHg 96%
05:00 +14°C° 0 mm 2 m/s 745 mmHg 96%
06:00 +15°C° 0 mm 2 m/s 745 mmHg 94%
07:00 +16°C° 0 mm 2 m/s 745 mmHg 93%
08:00 +17°C° 0 mm 3 m/s 745 mmHg 91%
09:00 +17°C° 0 mm 3 m/s 745 mmHg 90%
10:00 +17°C° 0 mm 3 m/s 745 mmHg 89%
11:00 +18°C° 0 mm 3 m/s 746 mmHg 88%
12:00 +18°C° 0 mm 3 m/s 746 mmHg 84%
13:00 +19°C° 0 mm 3 m/s 746 mmHg 80%
14:00 +20°C° 0 mm 3 m/s 746 mmHg 76%
15:00 +20°C° 0 mm 3 m/s 746 mmHg 74%
16:00 +20°C° 0 mm 3 m/s 746 mmHg 71%
17:00 +20°C° 0 mm 3 m/s 746 mmHg 68%
18:00 +19°C° 0 mm 2 m/s 746 mmHg 72%
19:00 +17°C° 0 mm 2 m/s 746 mmHg 76%
20:00 +15°C° 0 mm 2 m/s 746 mmHg 81%
21:00 +14°C° 0 mm 2 m/s 747 mmHg 82%
22:00 +13°C° 0 mm 2 m/s 747 mmHg 84%
23:00 +13°C° 0 mm 2 m/s 747 mmHg 86%
Arată mai mult